Location: Unspecified
(40.7945°N, 0.0000°E)
Time: 19:15:11
(UTC+00:00)

Explorer 7 - Pass Details

Date: 24 June 2021
Orbit: 484 x 676 km, 50.3° (Epoch: 30 July)

Event Time Altitude Azimuth Distance (km) Brightness Sun altitude
Rises 01:52:19 0° 300° (WNW) 2,966 10.6 -20.9°
Reaches altitude 10° 01:54:46 10° 295° (WNW) 2,027 9.7 -20.7°
Enters shadow 01:58:31 44° 252° (WSW) 861 7.4 -20.4°
